#timestamp,LO_Frequency,Hit,StdDev 
1615939215.9,286046998.1,N
1615939235.7,286046999.8,N
1615939255.6,286047001.7,N
1615939275.4,286047002.2,N
1615939295.2,286047004.0,N
1615939315.1,286047005.4,N
1615939316.0,286047005.4,N
1615939335.8,286047002.9,N
1615939355.7,286047001.4,N
1615939375.5,286046999.9,N
1615939395.3,286047001.4,N
1615939415.2,286047001.5,N
1615939435.0,286047003.9,N
1615939435.9,286047003.9,N
1615939455.7,286047000.2,N
1615939475.6,286047001.0,N
1615939495.4,286047002.0,N
1615939515.3,286047001.7,N
1615939535.1,286047006.9,Y
1615939536.0,286047006.9,P
1615939555.8,286047004.9,N
1615939575.7,286047005.9,N
1615939595.5,286047002.5,N
1615939615.3,286047005.7,N
1615939635.2,286047006.2,Y
1615939655.0,286047004.1,P
1615939655.9,286047004.1,P
1615939675.8,286047004.3,P
1615939695.6,286047005.4,Y
1615939715.4,286047001.9,P
1615939735.3,286047001.6,N
1615939755.1,286047005.8,P
1615939775.9,286047002.1,N
1615939795.7,286047000.1,N
1615939815.5,286047001.4,N
1615939835.4,286047004.5,N
1615939855.2,286047005.2,N
1615939875.0,286047004.3,N
1615939875.9,286047004.3,N
1615939895.8,286047005.0,N
1615939915.6,286047006.7,Y
1615939935.5,286047004.4,P
1615939985.3,286047000.5,E
1615939995.2,286046999.8,N
1615940015.1,286047000.5,P
1615940016.0,286047000.5,N
1615940035.8,286046998.9,Y
1615940055.7,286047002.6,P
1615940075.5,286047005.6,P
1615940095.3,286047002.2,N
1615940115.2,286047002.6,N
1615940135.0,286047004.4,N
1615940135.9,286047004.4,N
1615940155.7,286047004.9,N
1615940175.6,286047002.3,N
1615940195.4,286047000.4,N
1615940215.3,286046998.5,N
1615940235.1,286047001.9,N
1615940236.0,286047001.9,N
1615940255.8,286047004.0,N
1615940275.7,286047003.9,N
1615940295.5,286047000.6,N
1615940315.3,286047000.1,N
1615940335.2,286046998.3,N
1615940355.0,286047000.6,N
1615940355.9,286047000.6,N
1615940375.8,286047000.5,N
1615940395.6,286046998.5,N
1615940415.4,286047001.6,N
1615940435.3,286047004.3,N
1615940455.1,286047001.4,N
1615940505.9,286047003.7,E
1615940515.8,286047001.3,N
1615940535.6,286046995.4,P
1615940555.5,286046998.8,N
1615940575.3,286046997.7,N
1615940595.1,286046997.2,N
1615940615.9,286046995.7,N
1615940635.7,286046995.3,N
1615940655.6,286046997.4,N
1615940675.4,286046992.6,Y
1615940695.2,286046995.1,P
1615940715.1,286046995.7,P
1615940716.0,286046995.7,P
1615940735.8,286046997.3,Y
1615940755.6,286047003.1,P
1615940775.5,286047000.9,N
1615940795.3,286047002.6,N
1615940815.2,286047004.0,N
1615940835.9,286047003.9,N
1615940855.7,286047001.8,N
1615940875.6,286047001.8,N
1615940895.4,286047002.5,N
1615940915.2,286046996.9,N
1615940935.1,286047000.2,N
1615940936.0,286047000.2,N
1615940955.8,286047004.0,N
1615940975.7,286047001.6,N
1615940995.5,286046999.6,N
1615941015.3,286046999.0,N
1615941035.2,286046999.5,N
1615941055.0,286047000.5,N
1615941055.9,286047000.5,N
1615941075.7,286046995.0,N
1615941095.6,286046997.2,N
1615941115.4,286046997.5,N
1615941135.3,286046997.3,N
1615941155.1,286046994.2,N
1615941156.0,286046994.2,N
1615941175.8,286046995.6,N
1615941195.7,286046995.8,N
1615941215.5,286046997.5,N
1615941235.3,286046995.4,N
1615941255.2,286046997.8,N
1615941275.0,286046995.5,N
1615941275.9,286046995.5,N
1615941295.8,286046996.4,N
1615941315.6,286046994.4,N
1615941335.4,286046996.3,N
1615941355.3,286046996.4,N
1615941375.1,286046996.3,N
1615941395.9,286046990.2,Y
1615941415.7,286046992.5,P
1615941435.5,286046990.6,P
1615941455.4,286046990.3,P
1615941475.2,286046992.9,N
1615941495.0,286046991.5,Y
1615941495.9,286046991.5,P
1615941515.8,286047000.7,N
1615941535.6,286046998.9,N
1615941555.5,286046996.5,N
1615941575.3,286046999.4,N
1615941595.1,286046997.7,N
1615941615.9,286046999.2,N
1615941635.7,286046996.7,N
1615941655.5,286046998.0,N
1615941675.4,286047000.3,N
1615941695.2,286047002.8,N
1615941715.0,286046998.5,N
1615941716.0,286046998.5,N
1615941735.8,286047000.2,N
1615941755.6,286046999.4,N
1615941775.5,286046998.3,N
1615941795.3,286046998.7,N
1615941815.1,286046998.1,N
1615941835.9,286047000.3,N
1615941855.7,286047000.5,N
1615941875.5,286046998.4,N
1615941895.4,286046998.6,N
1615941915.2,286047000.0,N
1615941935.1,286047000.1,N
1615941936.0,286047000.1,N
1615941955.8,286047000.2,N
1615941975.6,286047001.4,N
1615941995.5,286047001.3,N
1615942015.3,286046999.8,N
1615942035.1,286047001.8,N
1615942055.9,286047001.7,N
1615942075.7,286047000.0,N
1615942095.6,286047002.7,N
1615942115.4,286047000.1,N
1615942135.2,286046999.9,N
1615942155.1,286046998.3,N
1615942156.0,286046998.3,N
1615942175.8,286046999.6,N
1615942195.6,286046995.6,Y
1615942215.5,286046996.4,P
1615942235.3,286046996.0,N
1615942255.2,286046997.9,N
1615942275.9,286046999.5,N
1615942295.7,286047002.8,N
1615942315.6,286046997.5,N
1615942335.4,286046995.4,N
1615942355.2,286046995.0,N
1615942375.1,286046993.6,N
1615942376.0,286046993.6,N
1615942395.8,286046996.9,N
1615942415.7,286046996.8,N
1615942435.5,286046999.4,N
1615942455.3,286046995.9,N
1615942475.2,286046995.3,N
1615942495.9,286046995.1,N
1615942515.7,286046995.2,N
1615942535.6,286046993.9,N
1615942555.4,286046995.7,N
1615942575.2,286046996.9,N
1615942595.1,286046997.1,N
1615942596.0,286046997.1,N
1615942615.8,286047000.3,N
1615942635.7,286046999.9,N
1615942655.5,286047000.4,N
1615942675.3,286047000.1,N
1615942695.2,286046997.1,N
1615942715.0,286046999.5,N
1615942715.9,286046999.5,N
1615942735.7,286046996.8,N
1615942755.6,286046998.6,N
1615942775.4,286046999.4,N
1615942795.3,286046997.2,N
